This is the latest recevied weather packets stored in our database for station/object K5IDL. If no packets are shown the sender has not sent any weather packets the latest 10 day(s).
| Time | Temp. | Humidity | Pressure | Rain* | Wind** | Luminosity | Snow |
|---|---|---|---|---|---|---|---|
| 1777304160 | 28.89° C | 72% | 1009.2 hPa | 0 mm | - | 385 W/m² | - |
| 1777303856 | 28.89° C | 73% | 1009.2 hPa | 0 mm | - | 442 W/m² | - |
| 1777303554 | 28.89° C | 73% | 1009 hPa | 0 mm | - | 351 W/m² | - |
| 1777303251 | 28.33° C | 74% | 1009 hPa | 0 mm | - | 305 W/m² | - |
| 1777302949 | 28.33° C | 74% | 1008.9 hPa | 0 mm | - | 253 W/m² | - |
| 1777302645 | 28.89° C | 73% | 1008.9 hPa | 0 mm | - | 233 W/m² | - |
| 1777302344 | 28.33° C | 73% | 1008.8 hPa | 0 mm | - | 332 W/m² | - |
| 1777302041 | 28.33° C | 74% | 1008.7 hPa | 0 mm | - | 313 W/m² | - |
| 1777301739 | 27.78° C | 76% | 1008.7 hPa | 0 mm | - | 309 W/m² | - |
| 1777301436 | 27.22° C | 77% | 1008.7 hPa | 0 mm | - | 286 W/m² | - |
| 1777301133 | 27.22° C | 76% | 1008.8 hPa | 0 mm | - | 157 W/m² | - |
| 1777300830 | 27.22° C | 77% | 1008.7 hPa | 0 mm | - | 159 W/m² | - |
| 1777300528 | 27.22° C | 77% | 1008.5 hPa | 0 mm | - | 213 W/m² | - |
| 1777300225 | 26.67° C | 78% | 1008.6 hPa | 0 mm | - | 240 W/m² | - |
| 1777299921 | 26.67° C | 79% | 1008.5 hPa | 0 mm | - | 91 W/m² | - |
| 1777299619 | 26.67° C | 78% | 1008.5 hPa | 0 mm | - | 204 W/m² | - |
| 1777299317 | 26.67° C | 78% | 1008.4 hPa | 0 mm | - | 92 W/m² | - |
| 1777299014 | 26.67° C | 78% | 1008.6 hPa | 0 mm | - | 200 W/m² | - |
| 1777298711 | 26.67° C | 79% | 1008.5 hPa | 0 mm | - | 173 W/m² | - |
| 1777298407 | 26.11° C | 79% | 1008.5 hPa | 0 mm | - | 153 W/m² | - |
| 1777298103 | 26.11° C | 80% | 1008.5 hPa | 0 mm | - | 147 W/m² | - |
| 1777297802 | 25.56° C | 81% | 1008.5 hPa | 0 mm | - | 135 W/m² | - |
| 1777297501 | 25.56° C | 81% | 1008.5 hPa | 0 mm | - | 107 W/m² | - |
| 1777297197 | 25.56° C | 81% | 1008.3 hPa | 0 mm | - | 110 W/m² | - |
| 1777296895 | 25.56° C | 81% | 1008.6 hPa | 0 mm | - | 79 W/m² | - |
* Rain latest hour (hover to see other rain measurements)
** Current wind speed in m/s (hover to see current wind gust speed)